Location: Vinland
(47.7731°N, 122.6974°W)
Time: 05:01:49
(UTC+00:00)

Courier 1B - Visible Passes

Search period start: 19 June 2024 00:00
Search period end: 29 June 2024 00:00
Orbit: 962 x 1208 km, 28.3° (Epoch: 18 June)

Date Brightness Start Highest point End Pass type
(mag) Time Alt. Az. Time Alt. Az. Time Alt. Az.
19 Jun 9.7 09:26:55 10° SSE 09:26:55 10° SSE 09:27:26 10° SSE visible
19 Jun 9.4 11:14:10 10° SSW 11:18:37 17° S 11:23:10 10° SE visible
20 Jun 9.3 10:23:04 14° S 10:25:01 15° S 10:29:10 10° SE visible
21 Jun 9.4 09:32:24 13° SSE 09:32:24 13° SSE 09:34:55 10° SE visible
21 Jun 9.3 11:19:50 10° SW 11:24:13 16° S 11:28:43 10° SSE visible
22 Jun 9.2 10:28:42 15° SSW 10:30:36 16° S 10:35:00 10° SE visible
23 Jun 9.3 09:38:12 15° SSE 09:38:12 15° SSE 09:41:06 10° SE visible
23 Jun 9.4 11:26:04 10° SW 11:29:50 15° S 11:33:42 10° SSE visible
24 Jun 9.2 10:34:43 14° SSW 10:36:14 15° S 10:40:17 10° SSE visible
25 Jun 9.3 09:44:32 14° SSE 09:44:32 14° SSE 09:46:42 10° SSE visible
25 Jun 9.4 11:33:23 10° SSW 11:35:25 11° SSW 11:37:29 10° S visible
26 Jun 9.3 10:41:29 13° SSW 10:41:51 13° SSW 10:44:49 10° SSE visible
